Location: Quaker Farms
(41.4276°N, 73.1557°W)
Time: 00:53:59
(UTC+00:00)

Altair - Pass Details

Date: 22 June 2021
Orbit: 1501 x 1682 km, 47.2° (Epoch: 23 July)

Event Time Altitude Azimuth Distance (km) Brightness Sun altitude
Rises 14:18:47 0° 171° (S) 4,626 10.2 52.9°
Reaches altitude 10° 14:24:07 10° 146° (SE) 3,669 10.1 53.9°
Maximum altitude 14:27:47 13° 122° (ESE) 3,459 10.2 54.5°
Drops below altitude 10° 14:31:29 10° 98° (E) 3,719 10.3 55.2°
Sets 14:36:55 0° 73° (ENE) 4,747 10.5 56.1°
